Language selection

Weather shortcuts

Eastern Lake Superior: Past 24 Hour Conditions

 

Geraldton Airport

02:00 AM EDT 14 June 2024
Disclaimer

This table is a summary of hourly weather conditions for the past 24 hours.
Please note that these observations might not always be representative of weather conditions over their associated marine area.

Date / Time
(EDT)
Wind(knots) Conditions Visibility(km) Pressure(kPa) Air tempC) Relative humidity(%) Dew pointC)
14 June 2024
2:00 NNE 6 Clear 16 101.4 8 69 3
1:00 NNE 8 Clear 16 101.4 10 65 4
0:00 N 4 Clear 16 101.2 12 64 5
13 June 2024
23:00 NNW 8 Mostly Cloudy 16 101.1 13 65 6
22:00 calm Clear 16 101.0 12 84 9
21:00 NNW 5 Partly Cloudy 16 100.9 16 53 7
20:00 N 10 Partly Cloudy 16 100.8 17 58 9
19:00 N 10 gusts 17 Mostly Cloudy 16 100.8 17 60 9
18:00 NNW 10 gusts 17 Cloudy 16 100.7 17 61 9
17:00 NNW 12 gusts 19 Cloudy 16 100.6 17 61 9
16:00 NNW 7 Light Rain 16 100.6 15 78 12
15:00 WNW 7 Cloudy 16 100.5 16 65 10
14:00 WNW 7 gusts 15 Cloudy 16 100.5 16 75 12
13:00 WNW 9 gusts 15 Cloudy 16 100.5 15 75 10
12:00 NW 7 Light Rain 16 100.5 16 76 11
11:00 WNW 5 Mostly Cloudy 16 100.4 15 87 13
10:00 NNW 2 Light Rain 16 100.4 13 100 13
9:00 calm Light Rain 16 100.4 12 100 12
8:00 NNW 2 Cloudy 16 100.4 12 99 12
7:00 N 2 Partly Cloudy 16 100.3 12 100 12
6:00 calm Sunny 16 100.3 11 100 11
5:00 N 3 Mostly Cloudy 16 100.2 12 N/A N/A
4:00 WNW 2 Haze 1 100.2 14 N/A N/A
3:00 WSW 3 Haze 2 100.3 13 N/A N/A
2:00 SW 4 Partly Cloudy 11 100.3 13 N/A N/A

Zoom-in to make a selection

Map of Great Lakes - Lake Superior marine weather areas Mid Superior - 45001 East Superior - 45004 West Superior - 45006 Slate Island - 45136 Lake Of the Woods - 45148 Kenora Airport Royal Island Armstrong Airport Caribou Island Marathon Airport Pukaskwa National Park Thunder Bay Airport Welcome Island Little Flatland Island Sault Ste. Marie Airport Wawa Airport
Legend:
buoy Buoy
land station Land Station

Great Lakes - Lake Superior Area

Another Region

Features

New Predicting and Alerting Coastal Flooding Program

Find out about coastal flooding coverage, forecasts and warnings in your region

Date modified: